22:46
Airports
History
Links
Donate
Help keep this website running!
PayPal
Bitcoin
Information on this page is community maintained and may be outdated or inaccurate and is intended for reference only or PC simulator navigating.
Always use approved charts for navigating.
9NE7
Bay Field
Bay Field (9NE7)
Stapleton, Nebraska, United States (69163)
4
Lat/Lng:41° 25' 60" N / 100° 29' 1.5" W
41.433332 / -100.483751
Elevation:3000'ft 914mMSL
ID / ICAO:9NE7
Runways:1
Longest:(16-34) 804.7m 2,640ft Grass
Distance To
Airport ID:
Nearby VORs <50NM
Nearby NDBs
Nearby WeatherUpdated 06-28-17 21:53 GMT
Nearby weather at KLBF, North Platte Rgnl Airport Lee located 23.6 nautical miles from 9NE7
Altimeter: 29.74
Visibility: 10.0 statute miles
Wind: 7 knots (300°)
Temp: 33°c 91°f
Humidity: 22.8%

METAR: KLBF 282153Z AUTO 30007KT 10SM CLR 33/09 A2974 RMK AO2 SLP042 T03280094

(Powered by phpweather)
Runway 16 / 34
Dimensions:804.7 x 12.2m 2640' x 40'ft
Surface:Grass
Runway 16 [A]Runway 34 [B]
Heading:169°TH 349°TH
Lat:
Lng:
41° 26' 12.79"N
100° 29' 4.82"W
41° 25' 47.2"N
100° 28' 58.19"W
User Notes and Comments
Google Map
Nearby Airports
(R) Brosius Field 2.2 NM
9NE8 S 173°
(R) Diamond Bar Jones 3.7 NM
5NE3 N 356°
4 Trumbull Ranch 19.8 NM
5NE1 WNW 293°
(U) North Platte Rgnl Airport Lee 23.6 NM
KLBF (WX) SSW 206°
(R) Paul Ridder Ranch 24.7 NM
1NE1 ESE 114°
(R) Orr Field 26.1 NM
NE25 SW 228°
(R) Evans Ranch 27.5 NM
34NE WSW 238°
VFR Chart
Flight Planning at SkyVector.com